Time,TemperatureF,DewpointF,PressureIn,WindDirection,WindDirectionDegrees,WindSpeedMPH,WindSpeedGustMPH,Humidity,HourlyPrecipIn,Conditions,Clouds,dailyrainin,SoftwareType,DateUTC
2013-02-27 00:00:00,46.4,16.7,30.04,ENE,68,6.0,7.4,30,0.00,,,0.00,WUHU216HW,2013-02-27 07:00:00,
2013-02-27 00:05:00,46.3,17.3,30.04,ENE,68,2.9,7.4,31,0.00,,,0.00,WUHU216HW,2013-02-27 07:05:00,
2013-02-27 00:10:00,46.1,17.1,30.04,ESE,113,4.0,6.0,31,0.00,,,0.00,WUHU216HW,2013-02-27 07:10:00,
2013-02-27 00:15:00,45.9,16.9,30.04,ENE,68,2.5,4.7,31,0.00,,,0.00,WUHU216HW,2013-02-27 07:15:00,
2013-02-27 00:20:00,45.7,17.5,30.04,ENE,68,1.8,4.0,32,0.00,,,0.00,WUHU216HW,2013-02-27 07:20:00,
2013-02-27 00:25:00,45.7,17.5,30.04,NE,45,2.5,3.1,32,0.00,,,0.00,WUHU216HW,2013-02-27 07:25:00,
2013-02-27 00:30:00,45.7,17.5,30.04,East,90,2.0,3.1,32,0.00,,,0.00,WUHU216HW,2013-02-27 07:30:00,
2013-02-27 00:35:00,45.4,17.1,30.05,East,90,2.0,2.9,32,0.00,,,0.00,WUHU216HW,2013-02-27 07:35:00,
2013-02-27 00:40:00,45.4,17.1,30.05,East,90,3.8,3.8,32,0.00,,,0.00,WUHU216HW,2013-02-27 07:40:00,
2013-02-27 00:45:00,45.0,16.7,30.06,ESE,113,4.9,4.9,32,0.00,,,0.00,WUHU216HW,2013-02-27 07:45:00,
2013-02-27 00:50:00,44.8,17.3,30.06,ESE,113,4.9,6.3,33,0.00,,,0.00,WUHU216HW,2013-02-27 07:50:00,
2013-02-27 00:55:00,44.6,17.1,30.06,ESE,113,4.0,6.5,33,0.00,,,0.00,WUHU216HW,2013-02-27 07:55:00,
2013-02-27 01:00:00,44.3,16.8,30.06,East,90,2.7,6.5,33,0.00,,,0.00,WUHU216HW,2013-02-27 08:00:00,
2013-02-27 01:05:00,44.3,17.5,30.07,ENE,68,4.0,6.3,34,0.00,,,0.00,WUHU216HW,2013-02-27 08:05:00,
2013-02-27 01:10:00,44.1,16.7,30.06,WSW,248,0.9,4.7,33,0.00,,,0.00,WUHU216HW,2013-02-27 08:10:00,
2013-02-27 01:15:00,43.9,16.5,30.07,WSW,248,0.2,4.7,33,0.00,,,0.00,WUHU216HW,2013-02-27 08:15:00,
2013-02-27 01:20:00,43.7,16.3,30.07,West,270,0.7,2.0,33,0.00,,,0.00,WUHU216HW,2013-02-27 08:20:00,
2013-02-27 01:25:00,43.6,16.8,30.06,North,0,3.4,3.4,34,0.00,,,0.00,WUHU216HW,2013-02-27 08:25:00,
2013-02-27 01:30:00,43.4,17.3,30.06,NNE,23,0.0,3.4,35,0.00,,,0.00,WUHU216HW,2013-02-27 08:30:00,
2013-02-27 01:35:00,43.2,17.2,30.07,North,0,2.5,3.4,35,0.00,,,0.00,WUHU216HW,2013-02-27 08:35:00,
2013-02-27 01:40:00,43.2,17.2,30.06,NNE,23,0.0,3.8,35,0.00,,,0.00,WUHU216HW,2013-02-27 08:40:00,
2013-02-27 01:45:00,43.2,17.2,30.06,North,0,2.5,3.8,35,0.00,,,0.00,WUHU216HW,2013-02-27 08:45:00,
2013-02-27 01:50:00,43.2,17.2,30.06,North,0,1.8,2.9,35,0.00,,,0.00,WUHU216HW,2013-02-27 08:50:00,
2013-02-27 01:55:00,43.6,17.5,30.06,NNW,338,2.5,4.0,35,0.00,,,0.00,WUHU216HW,2013-02-27 08:55:00,
2013-02-27 02:00:00,43.7,17.6,30.06,NNW,338,1.8,4.0,35,0.00,,,0.00,WUHU216HW,2013-02-27 09:00:00,
2013-02-27 02:05:00,43.9,17.8,30.06,North,0,1.3,2.5,35,0.00,,,0.00,WUHU216HW,2013-02-27 09:05:00,
2013-02-27 02:10:00,43.9,17.8,30.06,North,0,1.6,2.0,35,0.00,,,0.00,WUHU216HW,2013-02-27 09:10:00,
2013-02-27 02:15:00,44.3,18.1,30.06,NNE,23,2.5,2.9,35,0.00,,,0.00,WUHU216HW,2013-02-27 09:15:00,
2013-02-27 02:20:00,44.3,16.8,30.06,North,0,1.3,2.9,33,0.00,,,0.00,WUHU216HW,2013-02-27 09:20:00,
2013-02-27 02:25:00,44.5,16.9,30.06,NNW,338,1.3,2.7,33,0.00,,,0.00,WUHU216HW,2013-02-27 09:25:00,
2013-02-27 02:30:00,44.5,16.9,30.06,NNW,338,0.9,1.6,33,0.00,,,0.00,WUHU216HW,2013-02-27 09:30:00,
2013-02-27 02:35:00,44.5,16.9,30.07,NNW,338,0.0,1.6,33,0.00,,,0.00,WUHU216HW,2013-02-27 09:35:00,
2013-02-27 02:40:00,44.1,16.7,30.07,NNW,338,0.0,0.9,33,0.00,,,0.00,WUHU216HW,2013-02-27 09:40:00,
2013-02-27 02:45:00,43.6,16.1,30.07,NNW,338,0.4,1.1,33,0.00,,,0.00,WUHU216HW,2013-02-27 09:45:00,
2013-02-27 02:50:00,43.6,16.1,30.07,NW,315,1.1,1.1,33,0.00,,,0.00,WUHU216HW,2013-02-27 09:50:00,
2013-02-27 02:55:00,43.7,16.3,30.07,NNW,338,0.4,1.3,33,0.00,,,0.00,WUHU216HW,2013-02-27 09:55:00,
2013-02-27 03:00:00,43.7,16.3,30.07,NE,45,0.7,1.3,33,0.00,,,0.00,WUHU216HW,2013-02-27 10:00:00,
2013-02-27 03:05:00,43.7,16.3,30.08,ESE,113,1.3,1.3,33,0.00,,,0.00,WUHU216HW,2013-02-27 10:05:00,
2013-02-27 03:10:00,43.6,16.1,30.07,ESE,113,1.1,1.3,33,0.00,,,0.00,WUHU216HW,2013-02-27 10:10:00,
2013-02-27 03:15:00,43.2,16.5,30.08,ESE,113,1.1,1.3,34,0.00,,,0.00,WUHU216HW,2013-02-27 10:15:00,
2013-02-27 03:20:00,43.0,17.0,30.07,East,90,1.3,1.8,35,0.00,,,0.00,WUHU216HW,2013-02-27 10:20:00,
2013-02-27 03:25:00,42.8,16.8,30.07,ENE,68,1.1,1.8,35,0.00,,,0.00,WUHU216HW,2013-02-27 10:25:00,
2013-02-27 03:30:00,42.8,16.8,30.07,NE,45,1.3,1.8,35,0.00,,,0.00,WUHU216HW,2013-02-27 10:30:00,
2013-02-27 03:35:00,42.7,16.7,30.07,East,90,1.1,2.0,35,0.00,,,0.00,WUHU216HW,2013-02-27 10:35:00,
2013-02-27 03:40:00,42.5,16.6,30.07,ENE,68,0.9,2.0,35,0.00,,,0.00,WUHU216HW,2013-02-27 10:40:00,
2013-02-27 03:45:00,42.5,16.6,30.07,SE,135,0.0,1.3,35,0.00,,,0.00,WUHU216HW,2013-02-27 10:45:00,
2013-02-27 03:50:00,42.5,16.6,30.07,West,270,2.0,2.0,35,0.00,,,0.00,WUHU216HW,2013-02-27 10:50:00,
2013-02-27 03:55:00,42.3,17.0,30.06,SW,225,0.9,2.0,36,0.00,,,0.00,WUHU216HW,2013-02-27 10:55:00,
2013-02-27 04:00:00,42.1,16.9,30.06,ESE,113,0.4,2.0,36,0.00,,,0.00,WUHU216HW,2013-02-27 11:00:00,
2013-02-27 04:05:00,41.9,16.8,30.06,NW,315,1.3,1.8,36,0.00,,,0.00,WUHU216HW,2013-02-27 11:05:00,
2013-02-27 04:10:00,42.1,16.9,30.06,WSW,248,1.1,1.8,36,0.00,,,0.00,WUHU216HW,2013-02-27 11:10:00,
2013-02-27 04:15:00,41.9,16.8,30.06,WNW,293,1.3,2.0,36,0.00,,,0.00,WUHU216HW,2013-02-27 11:15:00,
2013-02-27 04:20:00,41.8,17.2,30.06,West,270,1.1,2.0,37,0.00,,,0.00,WUHU216HW,2013-02-27 11:20:00,
2013-02-27 04:25:00,41.4,16.9,30.07,WNW,293,0.0,1.8,37,0.00,,,0.00,WUHU216HW,2013-02-27 11:25:00,
2013-02-27 04:30:00,41.2,16.7,30.07,ENE,68,2.2,2.2,37,0.00,,,0.00,WUHU216HW,2013-02-27 11:30:00,
2013-02-27 04:35:00,40.7,16.9,30.07,ENE,68,0.7,2.2,38,0.00,,,0.00,WUHU216HW,2013-02-27 11:35:00,
2013-02-27 04:40:00,40.3,16.6,30.08,East,90,1.6,2.2,38,0.00,,,0.00,WUHU216HW,2013-02-27 11:40:00,
2013-02-27 04:45:00,40.1,17.1,30.07,ENE,68,1.1,2.0,39,0.00,,,0.00,WUHU216HW,2013-02-27 11:45:00,
2013-02-27 04:50:00,40.0,16.9,30.08,ESE,113,1.1,2.0,39,0.00,,,0.00,WUHU216HW,2013-02-27 11:50:00,
2013-02-27 04:55:00,39.8,16.7,30.08,ESE,113,0.4,1.8,39,0.00,,,0.00,WUHU216HW,2013-02-27 11:55:00,
2013-02-27 05:00:00,39.6,17.3,30.08,SSE,158,0.4,1.8,40,0.00,,,0.00,WUHU216HW,2013-02-27 12:00:00,
2013-02-27 05:05:00,39.4,17.1,30.08,ESE,113,1.8,2.5,40,0.00,,,0.00,WUHU216HW,2013-02-27 12:05:00,
2013-02-27 05:10:00,39.2,16.9,30.08,NE,45,2.2,2.5,40,0.00,,,0.00,WUHU216HW,2013-02-27 12:10:00,
2013-02-27 05:15:00,39.4,17.7,30.08,ENE,68,2.0,3.4,41,0.00,,,0.00,WUHU216HW,2013-02-27 12:15:00,
2013-02-27 05:20:00,39.4,17.1,30.08,East,90,2.0,3.4,40,0.00,,,0.00,WUHU216HW,2013-02-27 12:20:00,
2013-02-27 05:25:00,39.2,16.9,30.08,East,90,2.0,3.4,40,0.00,,,0.00,WUHU216HW,2013-02-27 12:25:00,
2013-02-27 05:30:00,39.2,17.5,30.08,ESE,113,1.3,3.4,41,0.00,,,0.00,WUHU216HW,2013-02-27 12:30:00,
2013-02-27 05:35:00,39.2,17.5,30.08,ENE,68,0.9,3.4,41,0.00,,,0.00,WUHU216HW,2013-02-27 12:35:00,
2013-02-27 05:40:00,39.2,17.5,30.08,East,90,1.8,2.2,41,0.00,,,0.00,WUHU216HW,2013-02-27 12:40:00,
2013-02-27 05:45:00,39.2,17.5,30.08,East,90,1.3,2.0,41,0.00,,,0.00,WUHU216HW,2013-02-27 12:45:00,
2013-02-27 05:50:00,39.4,17.7,30.08,East,90,1.8,2.5,41,0.00,,,0.00,WUHU216HW,2013-02-27 12:50:00,
2013-02-27 05:55:00,39.6,17.7,30.08,ENE,68,1.3,2.5,41,0.00,,,0.00,WUHU216HW,2013-02-27 12:55:00,
2013-02-27 06:00:00,39.6,17.7,30.08,East,90,2.0,2.5,41,0.00,,,0.00,WUHU216HW,2013-02-27 13:00:00,
2013-02-27 06:05:00,39.2,17.5,30.08,SSE,158,2.7,2.7,41,0.00,,,0.00,WUHU216HW,2013-02-27 13:05:00,
2013-02-27 06:10:00,38.9,17.1,30.08,East,90,1.1,2.7,41,0.00,,,0.00,WUHU216HW,2013-02-27 13:10:00,
2013-02-27 06:15:00,38.5,17.3,30.09,ESE,113,2.5,2.5,42,0.00,,,0.00,WUHU216HW,2013-02-27 13:15:00,
2013-02-27 06:20:00,38.2,17.0,30.10,ESE,113,2.5,2.5,42,0.00,,,0.00,WUHU216HW,2013-02-27 13:20:00,
2013-02-27 06:25:00,38.0,16.8,30.10,East,90,1.3,2.5,42,0.00,,,0.00,WUHU216HW,2013-02-27 13:25:00,
2013-02-27 06:30:00,37.6,17.0,30.10,East,90,1.8,2.5,43,0.00,,,0.00,WUHU216HW,2013-02-27 13:30:00,
2013-02-27 06:35:00,37.4,16.8,30.10,SE,135,1.1,2.2,43,0.00,,,0.00,WUHU216HW,2013-02-27 13:35:00,
2013-02-27 06:40:00,37.3,16.8,30.11,SE,135,2.2,3.1,43,0.00,,,0.00,WUHU216HW,2013-02-27 13:40:00,
2013-02-27 06:45:00,37.1,16.6,30.11,ESE,113,1.8,3.6,43,0.00,,,0.00,WUHU216HW,2013-02-27 13:45:00,
2013-02-27 06:50:00,36.7,16.2,30.11,ESE,113,2.2,3.6,43,0.00,,,0.00,WUHU216HW,2013-02-27 13:50:00,
2013-02-27 06:55:00,36.5,16.6,30.11,East,90,2.0,3.8,44,0.00,,,0.00,WUHU216HW,2013-02-27 13:55:00,
2013-02-27 07:00:00,36.4,16.4,30.11,East,90,1.8,3.8,44,0.00,,,0.00,WUHU216HW,2013-02-27 14:00:00,
2013-02-27 07:05:00,36.5,16.6,30.11,ENE,68,1.8,2.5,44,0.00,,,0.00,WUHU216HW,2013-02-27 14:05:00,
2013-02-27 07:10:00,36.7,16.7,30.12,East,90,1.1,2.5,44,0.00,,,0.00,WUHU216HW,2013-02-27 14:10:00,
2013-02-27 07:15:00,36.9,16.4,30.12,NE,45,0.2,1.8,43,0.00,,,0.00,WUHU216HW,2013-02-27 14:15:00,
2013-02-27 07:20:00,37.1,16.6,30.12,SE,135,0.0,1.1,43,0.00,,,0.00,WUHU216HW,2013-02-27 14:20:00,
2013-02-27 07:25:00,37.3,16.2,30.12,WSW,248,0.0,0.2,42,0.00,,,0.00,WUHU216HW,2013-02-27 14:25:00,
2013-02-27 07:30:00,37.6,16.5,30.12,NW,315,0.7,1.1,42,0.00,,,0.00,WUHU216HW,2013-02-27 14:30:00,
2013-02-27 07:35:00,38.0,16.8,30.12,NNW,338,1.1,1.3,42,0.00,,,0.00,WUHU216HW,2013-02-27 14:35:00,
2013-02-27 07:40:00,38.5,17.3,30.12,NNW,338,1.1,1.3,42,0.00,,,0.00,WUHU216HW,2013-02-27 14:40:00,
2013-02-27 07:45:00,38.7,17.5,30.12,NNW,338,1.1,1.3,42,0.00,,,0.00,WUHU216HW,2013-02-27 14:45:00,
2013-02-27 07:50:00,39.1,17.8,30.12,NNW,338,1.1,1.6,42,0.00,,,0.00,WUHU216HW,2013-02-27 14:50:00,
2013-02-27 07:55:00,39.2,17.5,30.12,NW,315,1.6,1.8,41,0.00,,,0.00,WUHU216HW,2013-02-27 14:55:00,
2013-02-27 08:00:00,39.6,17.3,30.12,NNW,338,0.7,1.8,40,0.00,,,0.00,WUHU216HW,2013-02-27 15:00:00,
2013-02-27 08:05:00,40.0,17.6,30.12,West,270,0.9,1.8,40,0.00,,,0.00,WUHU216HW,2013-02-27 15:05:00,
2013-02-27 08:10:00,40.1,17.7,30.12,West,270,1.3,1.8,40,0.00,,,0.00,WUHU216HW,2013-02-27 15:10:00,
2013-02-27 08:15:00,40.3,17.3,30.13,WNW,293,0.4,1.8,39,0.00,,,0.00,WUHU216HW,2013-02-27 15:15:00,
2013-02-27 08:20:00,40.5,17.4,30.13,NW,315,0.9,1.6,39,0.00,,,0.00,WUHU216HW,2013-02-27 15:20:00,
2013-02-27 08:25:00,40.7,17.6,30.14,West,270,0.7,1.6,39,0.00,,,0.00,WUHU216HW,2013-02-27 15:25:00,
2013-02-27 08:30:00,41.2,17.4,30.14,WSW,248,2.2,2.7,38,0.00,,,0.00,WUHU216HW,2013-02-27 15:30:00,
2013-02-27 08:35:00,41.6,17.7,30.15,NW,315,1.3,3.4,38,0.00,,,0.00,WUHU216HW,2013-02-27 15:35:00,
2013-02-27 08:40:00,41.9,17.4,30.15,WSW,248,2.7,4.0,37,0.00,,,0.00,WUHU216HW,2013-02-27 15:40:00,
2013-02-27 08:45:00,42.1,17.6,30.15,West,270,2.7,4.0,37,0.00,,,0.00,WUHU216HW,2013-02-27 15:45:00,
2013-02-27 08:50:00,42.5,17.2,30.16,West,270,2.5,4.5,36,0.00,,,0.00,WUHU216HW,2013-02-27 15:50:00,
2013-02-27 08:55:00,42.8,17.5,30.16,West,270,1.6,4.5,36,0.00,,,0.00,WUHU216HW,2013-02-27 15:55:00,
2013-02-27 09:00:00,43.2,17.8,30.16,WNW,293,3.6,3.6,36,0.00,,,0.00,WUHU216HW,2013-02-27 16:00:00,
2013-02-27 09:05:00,43.7,18.3,30.16,NW,315,2.9,4.0,36,0.00,,,0.00,WUHU216HW,2013-02-27 16:05:00,
2013-02-27 09:10:00,44.1,18.0,30.16,West,270,2.9,5.4,35,0.00,,,0.00,WUHU216HW,2013-02-27 16:10:00,
2013-02-27 09:15:00,44.6,18.5,30.16,NW,315,2.2,5.4,35,0.00,,,0.00,WUHU216HW,2013-02-27 16:15:00,
2013-02-27 09:20:00,45.0,17.5,30.16,WNW,293,3.4,4.9,33,0.00,,,0.00,WUHU216HW,2013-02-27 16:20:00,
2013-02-27 09:25:00,45.5,17.9,30.15,WNW,293,4.0,4.9,33,0.00,,,0.00,WUHU216HW,2013-02-27 16:25:00,
2013-02-27 09:30:00,46.1,18.5,30.15,WNW,293,4.0,4.9,33,0.00,,,0.00,WUHU216HW,2013-02-27 16:30:00,
2013-02-27 09:35:00,46.4,18.1,30.15,West,270,2.2,4.3,32,0.00,,,0.00,WUHU216HW,2013-02-27 16:35:00,
2013-02-27 09:40:00,46.8,17.7,30.15,WNW,293,3.1,4.3,31,0.00,,,0.00,WUHU216HW,2013-02-27 16:40:00,
2013-02-27 09:45:00,47.2,18.1,30.15,WNW,293,2.9,5.4,31,0.00,,,0.00,WUHU216HW,2013-02-27 16:45:00,
2013-02-27 09:50:00,47.2,18.1,30.15,SW,225,4.3,5.4,31,0.00,,,0.00,WUHU216HW,2013-02-27 16:50:00,
2013-02-27 09:55:00,47.3,16.7,30.15,SSW,203,3.1,6.3,29,0.00,,,0.00,WUHU216HW,2013-02-27 16:55:00,
2013-02-27 10:00:00,47.7,17.9,30.15,WSW,248,2.0,6.3,30,0.00,,,0.00,WUHU216HW,2013-02-27 17:00:00,
2013-02-27 10:05:00,47.7,17.9,30.15,SW,225,2.9,6.0,30,0.00,,,0.00,WUHU216HW,2013-02-27 17:05:00,
2013-02-27 10:10:00,47.9,18.0,30.15,SSE,158,3.4,5.4,30,0.00,,,0.00,WUHU216HW,2013-02-27 17:10:00,
2013-02-27 10:15:00,48.1,18.9,30.14,SSW,203,2.7,5.1,31,0.00,,,0.00,WUHU216HW,2013-02-27 17:15:00,
2013-02-27 10:20:00,48.2,19.0,30.15,SW,225,2.0,4.7,31,0.00,,,0.00,WUHU216HW,2013-02-27 17:20:00,
2013-02-27 10:25:00,48.6,19.4,30.14,SW,225,3.4,4.7,31,0.00,,,0.00,WUHU216HW,2013-02-27 17:25:00,
2013-02-27 10:30:00,48.8,19.4,30.14,NW,315,1.1,4.3,31,0.00,,,0.00,WUHU216HW,2013-02-27 17:30:00,
2013-02-27 10:35:00,49.0,18.9,30.15,NW,315,0.0,4.3,30,0.00,,,0.00,WUHU216HW,2013-02-27 17:35:00,
2013-02-27 10:40:00,49.1,19.1,30.15,SE,135,1.8,3.8,30,0.00,,,0.00,WUHU216HW,2013-02-27 17:40:00,
2013-02-27 10:45:00,49.3,19.3,30.15,South,180,1.3,3.8,30,0.00,,,0.00,WUHU216HW,2013-02-27 17:45:00,
2013-02-27 10:50:00,49.7,19.5,30.15,WSW,248,0.7,3.4,30,0.00,,,0.00,WUHU216HW,2013-02-27 17:50:00,
2013-02-27 10:55:00,50.0,19.8,30.15,ESE,113,1.6,3.4,30,0.00,,,0.00,WUHU216HW,2013-02-27 17:55:00,
2013-02-27 11:00:00,50.8,19.5,30.15,SSE,158,2.5,4.0,29,0.00,,,0.00,WUHU216HW,2013-02-27 18:00:00,
2013-02-27 11:05:00,51.1,19.8,30.14,SSE,158,2.2,4.3,29,0.00,,,0.00,WUHU216HW,2013-02-27 18:05:00,
2013-02-27 11:10:00,51.3,20.0,30.14,East,90,3.6,4.3,29,0.00,,,0.00,WUHU216HW,2013-02-27 18:10:00,
2013-02-27 11:15:00,51.7,19.4,30.14,WNW,293,1.8,3.6,28,0.00,,,0.00,WUHU216HW,2013-02-27 18:15:00,
2013-02-27 11:20:00,51.8,19.5,30.14,South,180,4.7,6.3,28,0.00,,,0.00,WUHU216HW,2013-02-27 18:20:00,
2013-02-27 11:25:00,52.2,19.9,30.14,WSW,248,1.6,6.3,28,0.00,,,0.00,WUHU216HW,2013-02-27 18:25:00,
2013-02-27 11:30:00,52.4,20.0,30.14,WSW,248,2.5,5.4,28,0.00,,,0.00,WUHU216HW,2013-02-27 18:30:00,
2013-02-27 11:35:00,53.3,19.9,30.14,WSW,248,4.0,6.9,27,0.00,,,0.00,WUHU216HW,2013-02-27 18:35:00,
2013-02-27 11:40:00,53.6,20.2,30.14,WSW,248,2.7,7.4,27,0.00,,,0.00,WUHU216HW,2013-02-27 18:40:00,
2013-02-27 11:45:00,53.8,20.4,30.14,SSE,158,3.6,7.4,27,0.00,,,0.00,WUHU216HW,2013-02-27 18:45:00,
2013-02-27 11:50:00,54.0,18.5,30.14,WSW,248,6.9,6.9,25,0.00,,,0.00,WUHU216HW,2013-02-27 18:50:00,
2013-02-27 11:55:00,54.4,17.9,30.14,South,180,2.7,8.1,24,0.00,,,0.00,WUHU216HW,2013-02-27 18:55:00,
2013-02-27 12:00:00,54.9,18.4,30.14,SE,135,0.4,8.1,24,0.00,,,0.00,WUHU216HW,2013-02-27 19:00:00,
2013-02-27 12:05:00,55.3,18.7,30.14,SE,135,2.5,4.0,24,0.00,,,0.00,WUHU216HW,2013-02-27 19:05:00,
2013-02-27 12:10:00,55.8,19.2,30.14,WSW,248,2.5,6.5,24,0.00,,,0.00,WUHU216HW,2013-02-27 19:10:00,
2013-02-27 12:15:00,56.0,17.5,30.13,NW,315,3.4,6.5,22,0.00,,,0.00,WUHU216HW,2013-02-27 19:15:00,
2013-02-27 12:20:00,55.8,17.3,30.13,NNW,338,0.4,4.7,22,0.00,,,0.00,WUHU216HW,2013-02-27 19:20:00,
2013-02-27 12:25:00,55.8,19.2,30.13,SSW,203,4.0,6.3,24,0.00,,,0.00,WUHU216HW,2013-02-27 19:25:00,
2013-02-27 12:30:00,56.5,19.8,30.12,SW,225,6.0,7.6,24,0.00,,,0.00,WUHU216HW,2013-02-27 19:30:00,
2013-02-27 12:35:00,57.4,19.5,30.12,WSW,248,2.2,7.6,23,0.00,,,0.00,WUHU216HW,2013-02-27 19:35:00,
2013-02-27 12:40:00,58.1,20.2,30.12,SSW,203,4.3,7.6,23,0.00,,,0.00,WUHU216HW,2013-02-27 19:40:00,
2013-02-27 12:45:00,58.0,19.1,30.12,West,270,5.8,8.1,22,0.00,,,0.00,WUHU216HW,2013-02-27 19:45:00,
2013-02-27 12:50:00,57.8,18.9,30.12,WSW,248,4.7,8.1,22,0.00,,,0.00,WUHU216HW,2013-02-27 19:50:00,
2013-02-27 12:55:00,57.4,17.6,30.12,NW,315,3.4,5.8,21,0.00,,,0.00,WUHU216HW,2013-02-27 19:55:00,
2013-02-27 13:00:00,57.6,16.8,30.11,WSW,248,5.4,6.9,20,0.00,,,0.00,WUHU216HW,2013-02-27 20:00:00,
2013-02-27 13:05:00,58.1,17.3,30.11,NW,315,3.4,6.9,20,0.00,,,0.00,WUHU216HW,2013-02-27 20:05:00,
2013-02-27 13:10:00,58.5,14.5,30.11,West,270,5.4,6.7,18,0.00,,,0.00,WUHU216HW,2013-02-27 20:10:00,
2013-02-27 13:15:00,58.9,17.8,30.11,WSW,248,4.5,8.9,20,0.00,,,0.00,WUHU216HW,2013-02-27 20:15:00,
2013-02-27 13:20:00,59.4,19.3,30.11,SW,225,3.6,8.9,21,0.00,,,0.00,WUHU216HW,2013-02-27 20:20:00,
2013-02-27 13:25:00,59.8,17.1,30.11,WSW,248,7.4,8.5,19,0.00,,,0.00,WUHU216HW,2013-02-27 20:25:00,
2013-02-27 13:30:00,59.6,16.9,30.11,WSW,248,1.8,8.5,19,0.00,,,0.00,WUHU216HW,2013-02-27 20:30:00,
2013-02-27 13:35:00,59.6,16.9,30.10,SSW,203,5.6,10.7,19,0.00,,,0.00,WUHU216HW,2013-02-27 20:35:00,
2013-02-27 13:40:00,59.8,17.1,30.10,SW,225,6.0,10.7,19,0.00,,,0.00,WUHU216HW,2013-02-27 20:40:00,
2013-02-27 13:45:00,59.9,15.7,30.10,WNW,293,9.2,10.5,18,0.00,,,0.00,WUHU216HW,2013-02-27 20:45:00,
2013-02-27 13:50:00,59.9,15.7,30.09,West,270,6.0,10.5,18,0.00,,,0.00,WUHU216HW,2013-02-27 20:50:00,
2013-02-27 13:55:00,60.3,16.0,30.10,West,270,7.6,9.2,18,0.00,,,0.00,WUHU216HW,2013-02-27 20:55:00,
2013-02-27 14:00:00,60.3,16.0,30.10,SW,225,5.6,9.4,18,0.00,,,0.00,WUHU216HW,2013-02-27 21:00:00,
2013-02-27 14:05:00,60.5,14.6,30.09,WNW,293,4.5,9.4,17,0.00,,,0.00,WUHU216HW,2013-02-27 21:05:00,
2013-02-27 14:10:00,60.7,14.8,30.09,West,270,9.8,9.8,17,0.00,,,0.00,WUHU216HW,2013-02-27 21:10:00,
2013-02-27 14:15:00,60.7,14.8,30.09,WNW,293,4.7,9.8,17,0.00,,,0.00,WUHU216HW,2013-02-27 21:15:00,
2013-02-27 14:20:00,60.3,14.5,30.09,NNW,338,2.7,9.8,17,0.00,,,0.00,WUHU216HW,2013-02-27 21:20:00,
2013-02-27 14:25:00,60.7,14.8,30.09,North,0,6.3,6.3,17,0.00,,,0.00,WUHU216HW,2013-02-27 21:25:00,
2013-02-27 14:30:00,60.8,15.0,30.09,WNW,293,7.2,9.2,17,0.00,,,0.00,WUHU216HW,2013-02-27 21:30:00,
2013-02-27 14:35:00,60.8,15.0,30.08,WNW,293,8.3,9.2,17,0.00,,,0.00,WUHU216HW,2013-02-27 21:35:00,
2013-02-27 14:40:00,60.7,14.8,30.08,WNW,293,6.9,8.3,17,0.00,,,0.00,WUHU216HW,2013-02-27 21:40:00,
2013-02-27 14:45:00,61.0,13.5,30.08,NNW,338,8.5,8.5,16,0.00,,,0.00,WUHU216HW,2013-02-27 21:45:00,
2013-02-27 14:50:00,61.4,12.3,30.08,WSW,248,4.7,11.0,15,0.00,,,0.00,WUHU216HW,2013-02-27 21:50:00,
2013-02-27 14:55:00,61.6,14.0,30.08,West,270,6.0,11.0,16,0.00,,,0.00,WUHU216HW,2013-02-27 21:55:00,
2013-02-27 15:00:00,61.7,12.5,30.08,West,270,8.5,10.7,15,0.00,,,0.00,WUHU216HW,2013-02-27 22:00:00,
2013-02-27 15:05:00,62.1,12.8,30.08,West,270,5.1,10.5,15,0.00,,,0.00,WUHU216HW,2013-02-27 22:05:00,
2013-02-27 15:10:00,62.3,14.5,30.07,SSW,203,8.7,8.7,16,0.00,,,0.00,WUHU216HW,2013-02-27 22:10:00,
2013-02-27 15:15:00,62.6,11.7,30.07,WNW,293,5.6,9.8,14,0.00,,,0.00,WUHU216HW,2013-02-27 22:15:00,
2013-02-27 15:20:00,62.5,13.1,30.07,NNW,338,5.8,9.8,15,0.00,,,0.00,WUHU216HW,2013-02-27 22:20:00,
2013-02-27 15:25:00,62.5,13.1,30.07,WSW,248,7.4,8.9,15,0.00,,,0.00,WUHU216HW,2013-02-27 22:25:00,
2013-02-27 15:30:00,63.0,13.5,30.07,WNW,293,3.8,12.5,15,0.00,,,0.00,WUHU216HW,2013-02-27 22:30:00,
2013-02-27 15:35:00,63.4,13.8,30.07,WNW,293,7.6,12.5,15,0.00,,,0.00,WUHU216HW,2013-02-27 22:35:00,
2013-02-27 15:40:00,63.5,13.9,30.07,SW,225,5.4,9.6,15,0.00,,,0.00,WUHU216HW,2013-02-27 22:40:00,
2013-02-27 15:45:00,63.5,10.7,30.07,West,270,9.8,12.1,13,0.00,,,0.00,WUHU216HW,2013-02-27 22:45:00,
2013-02-27 15:50:00,63.7,10.9,30.07,WSW,248,5.6,12.5,13,0.00,,,0.00,WUHU216HW,2013-02-27 22:50:00,
2013-02-27 15:55:00,63.4,10.6,30.07,West,270,4.7,12.5,13,0.00,,,0.00,WUHU216HW,2013-02-27 22:55:00,
2013-02-27 16:00:00,63.2,10.5,30.07,West,270,6.7,11.4,13,0.00,,,0.00,WUHU216HW,2013-02-27 23:00:00,
2013-02-27 16:05:00,63.2,10.5,30.07,WSW,248,7.6,10.7,13,0.00,,,0.00,WUHU216HW,2013-02-27 23:05:00,
2013-02-27 16:10:00,62.6,8.6,30.07,WNW,293,9.2,12.3,12,0.00,,,0.00,WUHU216HW,2013-02-27 23:10:00,
2013-02-27 16:15:00,62.5,10.0,30.07,West,270,7.8,14.3,13,0.00,,,0.00,WUHU216HW,2013-02-27 23:15:00,
2013-02-27 16:20:00,63.2,8.9,30.06,NW,315,8.3,14.3,12,0.00,,,0.00,WUHU216HW,2013-02-27 23:20:00,
2013-02-27 16:25:00,63.4,9.1,30.07,WNW,293,6.7,12.8,12,0.00,,,0.00,WUHU216HW,2013-02-27 23:25:00,
2013-02-27 16:30:00,63.2,8.9,30.07,NW,315,7.4,13.6,12,0.00,,,0.00,WUHU216HW,2013-02-27 23:30:00,
2013-02-27 16:35:00,63.0,8.8,30.07,WSW,248,10.1,13.6,12,0.00,,,0.00,WUHU216HW,2013-02-27 23:35:00,
2013-02-27 16:40:00,62.3,8.3,30.07,West,270,14.3,15.4,12,0.00,,,0.00,WUHU216HW,2013-02-27 23:40:00,
2013-02-27 16:45:00,61.4,9.1,30.07,WNW,293,12.1,15.9,13,0.00,,,0.00,WUHU216HW,2013-02-27 23:45:00,
2013-02-27 16:50:00,61.4,9.1,30.07,WNW,293,10.7,15.9,13,0.00,,,0.00,WUHU216HW,2013-02-27 23:50:00,
2013-02-27 16:55:00,61.4,7.6,30.07,WNW,293,9.2,14.3,12,0.00,,,0.00,WUHU216HW,2013-02-27 23:55:00,
2013-02-27 17:00:00,60.8,8.6,30.07,WNW,293,7.6,14.3,13,0.00,,,0.00,WUHU216HW,2013-02-28 00:00:00,
2013-02-27 17:05:00,61.0,8.8,30.07,WNW,293,11.4,15.7,13,0.00,,,0.00,WUHU216HW,2013-02-28 00:05:00,
2013-02-27 17:10:00,61.0,8.8,30.07,West,270,10.1,15.7,13,0.00,,,0.00,WUHU216HW,2013-02-28 00:10:00,
2013-02-27 17:15:00,60.5,8.4,30.07,WNW,293,8.1,14.1,13,0.00,,,0.00,WUHU216HW,2013-02-28 00:15:00,
2013-02-27 17:20:00,60.5,8.4,30.07,WSW,248,5.8,14.1,13,0.00,,,0.00,WUHU216HW,2013-02-28 00:20:00,
2013-02-27 17:25:00,60.1,8.1,30.07,West,270,13.4,13.6,13,0.00,,,0.00,WUHU216HW,2013-02-28 00:25:00,
2013-02-27 17:30:00,59.4,9.0,30.07,NW,315,6.7,13.4,14,0.00,,,0.00,WUHU216HW,2013-02-28 00:30:00,
2013-02-27 17:35:00,58.5,6.8,30.08,West,270,8.7,13.4,13,0.00,,,0.00,WUHU216HW,2013-02-28 00:35:00,
2013-02-27 17:40:00,58.3,8.1,30.08,NW,315,13.0,13.4,14,0.00,,,0.00,WUHU216HW,2013-02-28 00:40:00,
2013-02-27 17:45:00,58.1,9.5,30.08,NW,315,6.9,13.4,15,0.00,,,0.00,WUHU216HW,2013-02-28 00:45:00,
2013-02-27 17:50:00,57.8,9.3,30.08,WNW,293,6.9,13.0,15,0.00,,,0.00,WUHU216HW,2013-02-28 00:50:00,
2013-02-27 17:55:00,57.6,9.1,30.08,WNW,293,8.5,13.4,15,0.00,,,0.00,WUHU216HW,2013-02-28 00:55:00,
2013-02-27 18:00:00,57.2,8.8,30.08,WNW,293,12.1,13.4,15,0.00,,,0.00,WUHU216HW,2013-02-28 01:00:00,
2013-02-27 18:05:00,56.9,10.1,30.08,NNW,338,9.4,12.1,16,0.00,,,0.00,WUHU216HW,2013-02-28 01:05:00,
2013-02-27 18:10:00,56.5,9.8,30.08,WNW,293,6.5,12.1,16,0.00,,,0.00,WUHU216HW,2013-02-28 01:10:00,
2013-02-27 18:15:00,56.2,9.5,30.08,NW,315,7.2,12.1,16,0.00,,,0.00,WUHU216HW,2013-02-28 01:15:00,
2013-02-27 18:20:00,55.6,10.7,30.09,NW,315,8.5,12.1,17,0.00,,,0.00,WUHU216HW,2013-02-28 01:20:00,
2013-02-27 18:25:00,55.1,10.3,30.09,NW,315,10.5,12.8,17,0.00,,,0.00,WUHU216HW,2013-02-28 01:25:00,
2013-02-27 18:30:00,54.7,9.9,30.09,WSW,248,8.3,12.8,17,0.00,,,0.00,WUHU216HW,2013-02-28 01:30:00,
2013-02-27 18:35:00,54.4,9.6,30.09,NW,315,10.5,12.1,17,0.00,,,0.00,WUHU216HW,2013-02-28 01:35:00,
2013-02-27 18:40:00,54.2,9.5,30.10,NW,315,7.6,12.1,17,0.00,,,0.00,WUHU216HW,2013-02-28 01:40:00,
2013-02-27 18:45:00,53.8,9.1,30.10,NNW,338,9.2,12.3,17,0.00,,,0.00,WUHU216HW,2013-02-28 01:45:00,
2013-02-27 18:50:00,53.6,10.4,30.10,NW,315,9.6,12.3,18,0.00,,,0.00,WUHU216HW,2013-02-28 01:50:00,
2013-02-27 18:55:00,53.5,10.4,30.10,NW,315,6.3,11.4,18,0.00,,,0.00,WUHU216HW,2013-02-28 01:55:00,
2013-02-27 19:00:00,53.3,10.2,30.10,NW,315,6.9,11.4,18,0.00,,,0.00,WUHU216HW,2013-02-28 02:00:00,
2013-02-27 19:05:00,53.1,10.1,30.10,NNW,338,7.4,12.1,18,0.00,,,0.00,WUHU216HW,2013-02-28 02:05:00,
2013-02-27 19:10:00,52.9,9.9,30.10,NW,315,11.0,12.1,18,0.00,,,0.00,WUHU216HW,2013-02-28 02:10:00,
2013-02-27 19:15:00,52.9,9.9,30.10,NW,315,7.6,12.8,18,0.00,,,0.00,WUHU216HW,2013-02-28 02:15:00,
2013-02-27 19:20:00,53.3,8.6,30.10,North,0,13.9,13.9,17,0.00,,,0.00,WUHU216HW,2013-02-28 02:20:00,
2013-02-27 19:25:00,53.5,8.8,30.10,WNW,293,7.6,13.9,17,0.00,,,0.00,WUHU216HW,2013-02-28 02:25:00,
2013-02-27 19:30:00,53.5,8.8,30.10,NNE,23,12.1,13.0,17,0.00,,,0.00,WUHU216HW,2013-02-28 02:30:00,
2013-02-27 19:35:00,53.3,8.6,30.10,NNW,338,8.5,15.0,17,0.00,,,0.00,WUHU216HW,2013-02-28 02:35:00,
2013-02-27 19:40:00,53.3,8.6,30.10,NNW,338,12.8,15.4,17,0.00,,,0.00,WUHU216HW,2013-02-28 02:40:00,
2013-02-27 19:45:00,53.3,8.6,30.11,NNE,23,11.9,15.4,17,0.00,,,0.00,WUHU216HW,2013-02-28 02:45:00,
2013-02-27 19:50:00,53.1,8.6,30.10,North,0,13.9,16.3,17,0.00,,,0.00,WUHU216HW,2013-02-28 02:50:00,
2013-02-27 19:55:00,53.1,8.6,30.10,North,0,13.6,17.7,17,0.00,,,0.00,WUHU216HW,2013-02-28 02:55:00,
2013-02-27 20:00:00,53.1,8.6,30.09,NNW,338,18.1,25.3,17,0.00,,,0.00,WUHU216HW,2013-02-28 03:00:00,
2013-02-27 20:05:00,53.1,8.6,30.10,NNE,23,15.4,25.3,17,0.00,,,0.00,WUHU216HW,2013-02-28 03:05:00,
2013-02-27 20:10:00,52.9,8.4,30.10,NNE,23,15.9,19.0,17,0.00,,,0.00,WUHU216HW,2013-02-28 03:10:00,
2013-02-27 20:15:00,52.9,8.4,30.10,NNW,338,9.2,19.0,17,0.00,,,0.00,WUHU216HW,2013-02-28 03:15:00,
2013-02-27 20:20:00,52.9,8.4,30.11,North,0,8.7,16.8,17,0.00,,,0.00,WUHU216HW,2013-02-28 03:20:00,
2013-02-27 20:25:00,52.9,8.4,30.11,NNE,23,10.3,23.5,17,0.00,,,0.00,WUHU216HW,2013-02-28 03:25:00,
2013-02-27 20:30:00,52.9,8.4,30.11,North,0,14.8,23.5,17,0.00,,,0.00,WUHU216HW,2013-02-28 03:30:00,
2013-02-27 20:35:00,52.9,8.4,30.10,NNW,338,13.6,19.2,17,0.00,,,0.00,WUHU216HW,2013-02-28 03:35:00,
2013-02-27 20:40:00,52.7,8.3,30.11,North,0,10.1,20.4,17,0.00,,,0.00,WUHU216HW,2013-02-28 03:40:00,
2013-02-27 20:45:00,52.9,8.4,30.11,North,0,10.1,20.4,17,0.00,,,0.00,WUHU216HW,2013-02-28 03:45:00,
2013-02-27 20:50:00,52.9,8.4,30.11,North,0,17.0,19.5,17,0.00,,,0.00,WUHU216HW,2013-02-28 03:50:00,
2013-02-27 20:55:00,52.9,8.4,30.11,North,0,17.2,19.0,17,0.00,,,0.00,WUHU216HW,2013-02-28 03:55:00,
2013-02-27 21:00:00,52.9,8.4,30.11,North,0,14.1,17.9,17,0.00,,,0.00,WUHU216HW,2013-02-28 04:00:00,
2013-02-27 21:05:00,52.9,8.4,30.12,ENE,68,13.6,17.7,17,0.00,,,0.00,WUHU216HW,2013-02-28 04:05:00,
2013-02-27 21:10:00,52.7,8.3,30.12,NNW,338,12.3,14.3,17,0.00,,,0.00,WUHU216HW,2013-02-28 04:10:00,
2013-02-27 21:15:00,52.6,8.1,30.12,NNE,23,6.0,15.0,17,0.00,,,0.00,WUHU216HW,2013-02-28 04:15:00,
2013-02-27 21:20:00,52.6,8.1,30.13,NE,45,5.8,15.0,17,0.00,,,0.00,WUHU216HW,2013-02-28 04:20:00,
2013-02-27 21:25:00,52.4,7.9,30.13,NE,45,5.8,13.4,17,0.00,,,0.00,WUHU216HW,2013-02-28 04:25:00,
2013-02-27 21:30:00,52.2,7.8,30.13,East,90,6.7,9.4,17,0.00,,,0.00,WUHU216HW,2013-02-28 04:30:00,
2013-02-27 21:35:00,52.0,7.7,30.13,NNE,23,4.7,9.8,17,0.00,,,0.00,WUHU216HW,2013-02-28 04:35:00,
2013-02-27 21:40:00,52.0,7.7,30.13,NE,45,6.5,11.2,17,0.00,,,0.00,WUHU216HW,2013-02-28 04:40:00,
2013-02-27 21:45:00,52.0,7.7,30.13,NE,45,4.9,11.2,17,0.00,,,0.00,WUHU216HW,2013-02-28 04:45:00,
2013-02-27 21:50:00,51.7,8.9,30.14,ENE,68,2.5,7.6,18,0.00,,,0.00,WUHU216HW,2013-02-28 04:50:00,
2013-02-27 21:55:00,51.1,8.5,30.14,NE,45,1.8,7.4,18,0.00,,,0.00,WUHU216HW,2013-02-28 04:55:00,
2013-02-27 22:00:00,50.9,8.3,30.14,East,90,1.8,4.7,18,0.00,,,0.00,WUHU216HW,2013-02-28 05:00:00,
2013-02-27 22:05:00,50.9,8.3,30.13,NNE,23,5.4,8.1,18,0.00,,,0.00,WUHU216HW,2013-02-28 05:05:00,
2013-02-27 22:10:00,51.3,8.7,30.14,NNW,338,7.4,8.3,18,0.00,,,0.00,WUHU216HW,2013-02-28 05:10:00,
2013-02-27 22:15:00,51.7,7.4,30.14,North,0,11.0,11.0,17,0.00,,,0.00,WUHU216HW,2013-02-28 05:15:00,
2013-02-27 22:20:00,52.2,7.8,30.14,NE,45,10.3,15.4,17,0.00,,,0.00,WUHU216HW,2013-02-28 05:20:00,
2013-02-27 22:25:00,52.4,7.9,30.14,North,0,7.6,15.4,17,0.00,,,0.00,WUHU216HW,2013-02-28 05:25:00,
2013-02-27 22:30:00,52.6,8.1,30.14,NNE,23,9.4,13.2,17,0.00,,,0.00,WUHU216HW,2013-02-28 05:30:00,
2013-02-27 22:35:00,52.7,6.8,30.14,NNE,23,15.0,15.0,16,0.00,,,0.00,WUHU216HW,2013-02-28 05:35:00,
2013-02-27 22:40:00,52.9,6.8,30.14,NNW,338,7.2,15.0,16,0.00,,,0.00,WUHU216HW,2013-02-28 05:40:00,
2013-02-27 22:45:00,52.9,6.8,30.14,North,0,12.3,15.0,16,0.00,,,0.00,WUHU216HW,2013-02-28 05:45:00,
2013-02-27 22:50:00,52.9,6.8,30.14,NNE,23,7.2,17.4,16,0.00,,,0.00,WUHU216HW,2013-02-28 05:50:00,
2013-02-27 22:55:00,52.9,6.8,30.14,North,0,9.4,20.4,16,0.00,,,0.00,WUHU216HW,2013-02-28 05:55:00,
2013-02-27 23:00:00,52.9,6.8,30.14,North,0,8.5,20.4,16,0.00,,,0.00,WUHU216HW,2013-02-28 06:00:00,
2013-02-27 23:05:00,52.6,8.1,30.14,NE,45,4.0,15.7,17,0.00,,,0.00,WUHU216HW,2013-02-28 06:05:00,
2013-02-27 23:10:00,52.2,7.8,30.14,South,180,5.4,9.2,17,0.00,,,0.00,WUHU216HW,2013-02-28 06:10:00,
2013-02-27 23:15:00,51.3,8.7,30.15,ESE,113,3.4,10.3,18,0.00,,,0.00,WUHU216HW,2013-02-28 06:15:00,
2013-02-27 23:20:00,50.6,9.5,30.15,East,90,3.4,10.3,19,0.00,,,0.00,WUHU216HW,2013-02-28 06:20:00,
2013-02-27 23:25:00,49.7,10.3,30.15,SE,135,4.3,4.7,20,0.00,,,0.00,WUHU216HW,2013-02-28 06:25:00,
2013-02-27 23:30:00,48.8,10.5,30.15,ENE,68,1.8,4.7,21,0.00,,,0.00,WUHU216HW,2013-02-28 06:30:00,
2013-02-27 23:35:00,47.9,9.6,30.14,NNE,23,3.4,4.3,21,0.00,,,0.00,WUHU216HW,2013-02-28 06:35:00,
2013-02-27 23:40:00,47.2,10.0,30.14,ENE,68,1.8,3.4,22,0.00,,,0.00,WUHU216HW,2013-02-28 06:40:00,
2013-02-27 23:45:00,46.8,9.7,30.14,ENE,68,2.5,3.4,22,0.00,,,0.00,WUHU216HW,2013-02-28 06:45:00,
2013-02-27 23:50:00,46.6,9.5,30.14,East,90,1.6,4.7,22,0.00,,,0.00,WUHU216HW,2013-02-28 06:50:00,
2013-02-27 23:55:00,46.6,9.5,30.15,East,90,2.9,4.7,22,0.00,,,0.00,WUHU216HW,2013-02-28 06:55:00,